TimeEST,TemperatureF,Dew PointF,Humidity,Sea Level PressureIn,VisibilityMPH,Wind Direction,Wind SpeedMPH,Gust SpeedMPH,PrecipitationIn,Events,Conditions,WindDirDegrees,DateUTC
12:53 AM,36.0,21.9,57,29.86,10.0,WNW,23.0,36.8,N/A,,Overcast,300,2012-12-30 05:53:00
1:53 AM,36.0,23.0,59,29.90,10.0,WNW,16.1,25.3,N/A,,Overcast,300,2012-12-30 06:53:00
2:53 AM,35.1,21.9,59,29.93,10.0,WNW,13.8,23.0,N/A,,Overcast,290,2012-12-30 07:53:00
3:53 AM,35.1,21.0,57,29.96,10.0,WNW,15.0,23.0,N/A,,Overcast,290,2012-12-30 08:53:00
4:53 AM,34.0,21.0,59,29.98,10.0,WNW,15.0,21.9,N/A,,Mostly Cloudy,290,2012-12-30 09:53:00
5:53 AM,34.0,21.0,59,30.01,10.0,WNW,21.9,33.4,N/A,,Overcast,300,2012-12-30 10:53:00
6:53 AM,34.0,19.0,54,30.06,10.0,WNW,19.6,33.4,N/A,,Overcast,290,2012-12-30 11:53:00
7:53 AM,33.1,19.0,56,30.12,10.0,NW,19.6,33.4,N/A,,Overcast,310,2012-12-30 12:53:00
8:53 AM,33.1,17.1,52,30.15,10.0,NW,19.6,31.1,N/A,,Mostly Cloudy,310,2012-12-30 13:53:00
9:53 AM,33.1,17.1,52,30.20,10.0,NW,24.2,33.4,N/A,,Partly Cloudy,310,2012-12-30 14:53:00
10:53 AM,34.0,18.0,52,30.22,10.0,WNW,18.4,33.4,N/A,,Partly Cloudy,300,2012-12-30 15:53:00
11:53 AM,34.0,18.0,52,30.22,10.0,NW,28.8,40.3,N/A,,Scattered Clouds,310,2012-12-30 16:53:00
12:53 PM,36.0,18.0,48,30.21,10.0,WNW,21.9,33.4,N/A,,Scattered Clouds,300,2012-12-30 17:53:00
1:53 PM,36.0,18.0,48,30.20,10.0,NW,16.1,28.8,N/A,,Overcast,320,2012-12-30 18:53:00
2:53 PM,36.0,18.0,48,30.24,10.0,WNW,18.4,34.5,N/A,,Mostly Cloudy,290,2012-12-30 19:53:00
3:53 PM,35.1,18.0,50,30.26,10.0,WNW,20.7,34.5,N/A,,Mostly Cloudy,290,2012-12-30 20:53:00
4:53 PM,34.0,18.0,52,30.30,10.0,West,9.2,-,N/A,,Overcast,260,2012-12-30 21:53:00
5:53 PM,33.1,18.0,54,30.32,10.0,West,11.5,18.4,N/A,,Overcast,280,2012-12-30 22:53:00
6:53 PM,32.0,18.0,56,30.31,10.0,West,13.8,-,N/A,,Partly Cloudy,280,2012-12-30 23:53:00
7:53 PM,30.0,18.0,61,30.31,10.0,West,4.6,-,N/A,,Partly Cloudy,280,2012-12-31 00:53:00
8:53 PM,30.0,17.1,59,30.32,10.0,West,8.1,-,N/A,,Clear,280,2012-12-31 01:53:00
9:53 PM,28.9,17.1,61,30.33,10.0,West,10.4,-,N/A,,Partly Cloudy,270,2012-12-31 02:53:00
10:53 PM,28.9,17.1,61,30.33,10.0,West,11.5,-,N/A,,Clear,280,2012-12-31 03:53:00
11:53 PM,25.0,16.0,69,30.32,10.0,South,3.5,-,N/A,,Clear,180,2012-12-31 04:53:00